Regional Weather Roundup
Issued by NWS Upton, NY

Current Version | Previous Version | Graphics & Text | Print | Product List | Glossary Off
Versions: 1 2 3 4 5 6 7 8 9 10 11 12 13 14 15 16 17 18 19 20 21 22 23 24 25 26 27 28 29 30 31 32 33 34 35 36 37 38 39 40 41 42 43 44 45 46 47 48 49 50
000 ASUS41 KOKX 300409 RWROKX REGIONAL WEATHER ROUNDUP NATIONAL WEATHER SERVICE NEW YORK NY 1200 AM EDT SUN APR 30 2017 NOTE: "FAIR" INDICATES FEW OR NO CLOUDS BELOW 12,000 FEET WITH NO SIGNIFICANT WEATHER AND/OR OBSTRUCTIONS TO VISIBILITY. NYZ071-072-176-178-NJZ106-104-300500- NEW YORK CITY METRO AREA CITY SKY/WX TMP DP RH WIND PRES REMARKS Central Park CLOUDY 69 54 58 NW6 30.15R Wall St Helipt CLOUDY 69 55 60 VRB6 30.13R Bronx Bot Gard N/A 68 50 52 NW14 30.13R LaGuardia APRT CLOUDY 71 54 54 N16 30.11R Kennedy INTL MOCLDY 72 56 57 N15 30.11R Breezy Point N/A 70 N/A N/A N10 N/A Newark/Liberty MOCLDY 72 55 55 NW16 30.12R Teterboro MOCLDY 68 54 60 N10 30.11R $$ NYZ177-179-078>081-300500- LONG ISLAND NEW YORK CITY SKY/WX TMP DP RH WIND PRES REMARKS Jones Beach N/A 68 N/A N/A N15 N/A Matinecock PT N/A 64 N/A N/A NW12G17 N/A Farmingdale MOCLDY 69 54 58 NW13G22 30.11R MacArthur/ISP MOCLDY 68 56 65 W3 30.10R Shirley NOT AVBL Mt Sinai Harb N/A 61 N/A N/A NW2 N/A Westhampton PTCLDY 64 52 64 CALM 30.11R East Hampton N/A 65 53 63 CALM 30.08S Montauk N/A 63 51 65 NW8 30.09 $$ NYZ052-065-067-300500- HUDSON VALLEY CITY SKY/WX TMP DP RH WIND PRES REMARKS White Plains PTCLDY 65 52 62 W8 30.11R Larchmont Harb N/A 66 N/A N/A W9 N/A Croton O-T Hud N/A 64 N/A N/A NW12 N/A Newburgh CLEAR 61 50 67 W14 30.15R Montgomery CLEAR 61 48 62 W3 30.14R Poughkeepsie CLEAR 63 51 65 CALM 30.12R Albany CLEAR 52 33 48 W16G25 30.17R $$ NJZ001-105-106-008-010-013-015-019>022-104-300500- NEW JERSEY CITY SKY/WX TMP DP RH WIND PRES REMARKS Newark/Liberty MOCLDY 72 55 55 NW16 30.12R Teterboro MOCLDY 68 54 60 N10 30.11R Caldwell CLOUDY 68 53 58 NW3 30.14R Somerville MOCLDY 70 57 63 N8 30.11R Linden CLOUDY 72 55 54 N10G17 30.12R Perth Amboy N/A 72 N/A N/A N7 N/A Sussex CLEAR 58 51 78 CALM 30.16F Andover N/A 61 52 72 VRB3 30.15R Trenton CLEAR 69 61 75 N6 30.10R Millville PTCLDY 66 65 96 CALM 30.08S Atlantic City PTCLDY 70 61 73 CALM 30.09R Wrightstown CLEAR 69 61 76 N3 30.08R Toms River CLEAR 65 60 84 CALM 30.11R Belmar CLEAR 72 59 63 N5 30.12R $$ PAZ047>061-062-071-300500- EASTERN PENNSYLVANIA CITY SKY/WX TMP DP RH WIND PRES REMARKS Philadelphia MOCLDY 73 62 68 N8 30.10R Allentown CLEAR 65 55 70 N6 30.14R Scranton PTCLDY 60 49 66 N7 30.17S $$ CTZ002-004>006-009-010-012-RIZ004-006-007-MAZ004-011-015-300500- SOUTHERN NEW ENGLAND IN CT CITY SKY/WX TMP DP RH WIND PRES REMARKS Bradley INTL PTCLDY 62 43 49 NW6 30.11R Hartford CLEAR 65 46 50 NW8 30.10R Danbury CLEAR 61 53 75 W5 30.13R Wtrbury/Oxford CLEAR 63 46 55 NW6 30.10F Bridgeport PTCLDY 68 53 58 NW5 30.09R Meriden CLEAR 65 51 60 CALM 30.09S New Haven CLEAR 66 51 58 NW3 30.09R Chester N/A 64 52 63 NW6G12 30.09S Groton CLEAR 66 50 56 W7 30.07R Wilimantic CLEAR 66 45 46 VRB6 30.09R IN RI CITY SKY/WX TMP DP RH WIND PRES REMARKS Providence PTCLDY 67 42 40 NW10 30.06R Block Island CLOUDY 65 51 60 NW8G16 30.08R Westerly CLOUDY 68 50 52 VRB6 30.07S IN MA CITY SKY/WX TMP DP RH WIND PRES REMARKS Boston CLEAR 66 41 40 W13 30.03R Worcester CLEAR 58 35 42 W14 30.08R Westfield CLEAR 60 37 42 NW9 30.11R Provincetown PTCLDY 58 47 66 W14 30.01R Nantucket CLOUDY 66 51 58 W16 30.02R $$ ANZ330-335-338-340-345-350-353-355-300500- COASTAL MARINE OBSERVATIONS STATION/POSITION TIME SKY/WX TEMP WIND PRES VSBY WAVE AIR SEA DIR/SP/G HT/PER (UTC) (F) (DEG/KT/KT) (MB) (MI) (FT/S) NY HARB ENTRANCE 0250 61 53 330/ 10/ 10 1018.5 3/ 8 20 S FIRE ISLAND 0350 56 50 CALM / 2 1018.5 3/ 6 GREAT SOUTH BAY 0315 68 62 340/ 8/ 10 N/A 23 SSW MONTAUK P 0250 55 48 1018.6 4/ 7 15 E BARNEGAT LI 0330 56 N/A 4/ 7 HUDSON CANYON 0250 53 50 230/ 8/ 10 1018.6 4/ 7 KINGS POINT 0348 64 54 10/ 14/ 16 1019.5 EXECUTION ROCKS NOT AVBL CENTRAL LI SOUND 0345 56 320/ 4/ 6 N/A 1/ 4 EASTERN LI SOUND NOT AVBL ROBBINS REEF 0348 71 340/ 14/ 18 1020.0 $$ >>>>>>>>>>>>>>>>>>>>>>>>>>>> KEY <<<<<<<<<<<<<<<<<<<<<<<<<<< > < > SKY/WX - Sky Condition/Present Weather < > TMP - Temperature in Fahrenheit < > DP - Dew Point in Fahrenheit < > RH - Relative Humidity in Percent < > WIND - Direction (from) and Speed in MPH < > PRES - Mean Sea Level Pressure (inches of Hg) < > WCI - Wind Chill Index < > VSB - VISIBILITY IN MILES < > HX - HEAT INDEX < > TC - TEMPERATURE IN CELSIUS < > VRB - VARIABLE WIND DIRECTION < > < >>>>>>>>>>>>>>>>>>>>>>>>>>>> KEY <<<<<<<<<<<<<<<<<<<<<<<<<<<

USA.gov is the U.S. government's official web portal to all federal, state and local government web resources and services.